TimeEST,TemperatureF,Dew PointF,Humidity,Sea Level PressureIn,VisibilityMPH,Wind Direction,Wind SpeedMPH,Gust SpeedMPH,PrecipitationIn,Events,Conditions,WindDirDegrees,DateUTC
12:53 AM,28.0,26.1,92,30.01,4.0,ESE,3.5,-,N/A,,Mostly Cloudy,110,2012-02-19 05:53:00
1:53 AM,30.9,28.0,89,30.03,8.0,Calm,Calm,-,N/A,,Overcast,0,2012-02-19 06:53:00
2:53 AM,32.0,28.0,85,30.05,10.0,Calm,Calm,-,N/A,,Mostly Cloudy,0,2012-02-19 07:53:00
3:53 AM,33.1,21.0,61,30.05,10.0,North,8.1,-,N/A,,Partly Cloudy,360,2012-02-19 08:53:00
4:53 AM,32.0,19.0,59,30.07,10.0,North,4.6,-,N/A,,Clear,360,2012-02-19 09:53:00
5:53 AM,26.1,19.9,78,30.07,10.0,North,3.5,-,N/A,,Clear,350,2012-02-19 10:53:00
6:53 AM,26.1,19.0,75,30.07,10.0,NNW,4.6,-,N/A,,Clear,340,2012-02-19 11:53:00
7:53 AM,28.0,23.0,81,30.10,10.0,Calm,Calm,-,N/A,,Clear,0,2012-02-19 12:53:00
8:53 AM,35.1,21.0,57,30.08,10.0,NNE,8.1,-,N/A,,Clear,20,2012-02-19 13:53:00
9:53 AM,37.0,21.0,52,30.08,10.0,NW,12.7,18.4,N/A,,Clear,320,2012-02-19 14:53:00
10:53 AM,39.9,19.0,43,30.09,10.0,North,8.1,16.1,N/A,,Clear,360,2012-02-19 15:53:00
11:53 AM,42.1,19.0,40,30.07,10.0,NE,12.7,-,N/A,,Clear,40,2012-02-19 16:53:00
12:53 PM,43.0,18.0,37,30.04,10.0,NNE,10.4,-,N/A,,Clear,30,2012-02-19 17:53:00
1:53 PM,43.0,18.0,37,30.01,10.0,Variable,4.6,-,N/A,,Clear,0,2012-02-19 18:53:00
2:53 PM,44.1,18.0,35,29.99,10.0,NNE,5.8,-,N/A,,Clear,30,2012-02-19 19:53:00
3:53 PM,42.8,17.6,36,29.98,10.0,NNE,6.9,-,N/A,,Clear,30,2012-02-19 20:53:00
4:53 PM,42.1,18.0,38,29.97,10.0,ENE,3.5,-,N/A,,Clear,70,2012-02-19 21:53:00
5:53 PM,37.0,18.0,46,29.98,10.0,NNE,5.8,-,N/A,,Clear,30,2012-02-19 22:53:00
6:53 PM,36.0,19.0,50,30.01,10.0,NNE,10.4,-,N/A,,Clear,30,2012-02-19 23:53:00
7:53 PM,35.1,18.0,50,30.01,10.0,NNE,10.4,-,N/A,,Clear,20,2012-02-20 00:53:00
8:53 PM,34.0,18.0,52,29.99,10.0,NNE,10.4,-,N/A,,Clear,30,2012-02-20 01:53:00
9:53 PM,32.0,19.0,59,30.00,10.0,NNE,8.1,-,N/A,,Clear,20,2012-02-20 02:53:00
10:53 PM,32.0,19.0,59,30.02,10.0,NNE,8.1,-,N/A,,Clear,30,2012-02-20 03:53:00
11:53 PM,32.0,19.0,59,30.01,10.0,NNE,8.1,-,N/A,,Clear,20,2012-02-20 04:53:00